Stündliche Wetter Kytino

Heute, 8 Mai, Samstag

Zeit Temperatur Niederschläge Wind Luftdruck Luftfeuchtigkeit
00:00 +8°C° 0 mm 3 m/S 746 mmHg 69%
01:00 +7°C° 0 mm 4 m/S 746 mmHg 69%
02:00 +7°C° 0 mm 4 m/S 746 mmHg 70%
03:00 +7°C° 0 mm 4 m/S 745 mmHg 71%
04:00 +8°C° 0.1 mm 5 m/S 745 mmHg 73%
05:00 +8°C° 0.1 mm 5 m/S 745 mmHg 76%
06:00 +8°C° 0.1 mm 6 m/S 744 mmHg 78%
07:00 +8°C° 0.8 mm 7 m/S 744 mmHg 82%
08:00 +8°C° 0.8 mm 7 m/S 743 mmHg 85%
09:00 +7°C° 0 mm 8 m/S 743 mmHg 89%
10:00 +7°C° 0.9 mm 8 m/S 743 mmHg 89%
11:00 +9°C° 0.9 mm 8 m/S 742 mmHg 88%
12:00 +9°C° 0.9 mm 8 m/S 742 mmHg 87%
13:00 +9°C° 0.7 mm 8 m/S 741 mmHg 88%
14:00 +10°C° 0.7 mm 8 m/S 741 mmHg 88%
15:00 +10°C° 0.7 mm 8 m/S 740 mmHg 89%
16:00 +10°C° 2.1 mm 7 m/S 739 mmHg 91%
17:00 +10°C° 2.1 mm 7 m/S 739 mmHg 93%
18:00 +10°C° 2.1 mm 7 m/S 738 mmHg 94%
19:00 +10°C° 0.3 mm 7 m/S 738 mmHg 94%
20:00 +10°C° 0.3 mm 6 m/S 738 mmHg 93%
21:00 +10°C° 0.3 mm 6 m/S 738 mmHg 93%
22:00 +9°C° 0 mm 5 m/S 738 mmHg 93%
23:00 +8°C° 0 mm 5 m/S 739 mmHg 94%

Morgen, 9 Mai, Sonntag

Zeit Temperatur Niederschläge Wind Luftdruck Luftfeuchtigkeit
00:00 +8°C° 0 mm 4 m/S 739 mmHg 94%
01:00 +7°C° 0 mm 5 m/S 739 mmHg 94%
02:00 +6°C° 0 mm 5 m/S 740 mmHg 94%
03:00 +4°C° 0 mm 6 m/S 740 mmHg 93%
04:00 +3°C° 0.1 mm 7 m/S 741 mmHg 94%
05:00 +3°C° 0.1 mm 7 m/S 742 mmHg 95%
06:00 +1°C° 0.1 mm 8 m/S 742 mmHg 96%
07:00 +2°C° 0 mm 7 m/S 743 mmHg 93%
08:00 +3°C° 0 mm 7 m/S 744 mmHg 89%
09:00 +3°C° 0 mm 7 m/S 745 mmHg 86%
10:00 +4°C° 0.1 mm 7 m/S 745 mmHg 81%
11:00 +5°C° 0.1 mm 7 m/S 746 mmHg 75%
12:00 +6°C° 0.1 mm 7 m/S 746 mmHg 70%
13:00 +6°C° 0 mm 7 m/S 747 mmHg 69%
14:00 +6°C° 0 mm 7 m/S 747 mmHg 68%
15:00 +6°C° 0 mm 7 m/S 748 mmHg 67%
16:00 +6°C° 0 mm 7 m/S 749 mmHg 67%
17:00 +7°C° 0 mm 6 m/S 749 mmHg 68%
18:00 +7°C° 0 mm 5 m/S 750 mmHg 68%
19:00 +6°C° 0 mm 4 m/S 750 mmHg 72%
20:00 +5°C° 0 mm 4 m/S 751 mmHg 77%
21:00 +4°C° 0 mm 3 m/S 752 mmHg 81%
22:00 +4°C° 0 mm 3 m/S 752 mmHg 81%
23:00 +4°C° 0 mm 3 m/S 752 mmHg 81%

übermorgen, 10 Mai, Montag

Zeit Temperatur Niederschläge Wind Luftdruck Luftfeuchtigkeit
00:00 +3°C° 0 mm 4 m/S 752 mmHg 81%
01:00 +3°C° 0 mm 4 m/S 753 mmHg 80%
02:00 +3°C° 0 mm 4 m/S 754 mmHg 79%
03:00 +3°C° 0 mm 4 m/S 754 mmHg 78%
04:00 +3°C° 0 mm 4 m/S 754 mmHg 77%
05:00 +3°C° 0 mm 4 m/S 755 mmHg 75%
06:00 +3°C° 0 mm 4 m/S 755 mmHg 74%
07:00 +5°C° 0 mm 5 m/S 755 mmHg 69%
08:00 +7°C° 0 mm 5 m/S 756 mmHg 64%
09:00 +8°C° 0 mm 6 m/S 756 mmHg 60%
10:00 +9°C° 0 mm 6 m/S 756 mmHg 55%
11:00 +10°C° 0 mm 7 m/S 756 mmHg 51%
12:00 +11°C° 0 mm 7 m/S 756 mmHg 46%
13:00 +11°C° 0 mm 7 m/S 756 mmHg 47%
14:00 +12°C° 0 mm 8 m/S 755 mmHg 48%
15:00 +12°C° 0 mm 8 m/S 755 mmHg 49%
16:00 +12°C° 0 mm 8 m/S 755 mmHg 52%
17:00 +11°C° 0 mm 7 m/S 755 mmHg 55%
18:00 +11°C° 0 mm 7 m/S 755 mmHg 58%
19:00 +10°C° 0 mm 6 m/S 755 mmHg 61%
20:00 +9°C° 0 mm 6 m/S 755 mmHg 65%
21:00 +8°C° 0 mm 5 m/S 756 mmHg 68%
22:00 +7°C° 0 mm 5 m/S 756 mmHg 68%
23:00 +7°C° 0 mm 6 m/S 756 mmHg 68%

11 Mai, Dienstag

Zeit Temperatur Niederschläge Wind Luftdruck Luftfeuchtigkeit
00:00 +5°C° 0 mm 6 m/S 756 mmHg 68%
01:00 +5°C° 0 mm 6 m/S 755 mmHg 68%
02:00 +5°C° 0 mm 6 m/S 755 mmHg 69%
03:00 +5°C° 0 mm 6 m/S 755 mmHg 69%
04:00 +5°C° 0 mm 6 m/S 755 mmHg 72%
05:00 +5°C° 0 mm 6 m/S 755 mmHg 74%
06:00 +5°C° 0 mm 6 m/S 755 mmHg 77%
07:00 +6°C° 0 mm 7 m/S 755 mmHg 75%
08:00 +8°C° 0 mm 7 m/S 755 mmHg 73%
09:00 +9°C° 0 mm 7 m/S 755 mmHg 72%
10:00 +10°C° 0.1 mm 7 m/S 755 mmHg 73%
11:00 +11°C° 0.1 mm 7 m/S 755 mmHg 75%
12:00 +13°C° 0.1 mm 6 m/S 755 mmHg 76%
13:00 +14°C° 0 mm 6 m/S 755 mmHg 75%
14:00 +15°C° 0 mm 7 m/S 755 mmHg 73%
15:00 +16°C° 0 mm 7 m/S 754 mmHg 72%
16:00 +16°C° 0.1 mm 6 m/S 755 mmHg 75%
17:00 +16°C° 0.1 mm 5 m/S 755 mmHg 78%
18:00 +15°C° 0.1 mm 4 m/S 755 mmHg 81%
19:00 +15°C° 0.4 mm 4 m/S 754 mmHg 85%
20:00 +14°C° 0.4 mm 3 m/S 754 mmHg 90%
21:00 +13°C° 0.4 mm 3 m/S 754 mmHg 95%
22:00 +13°C° 1.5 mm 2 m/S 754 mmHg 95%
23:00 +13°C° 1.5 mm 2 m/S 754 mmHg 95%

12 Mai, Mittwoch

Zeit Temperatur Niederschläge Wind Luftdruck Luftfeuchtigkeit
00:00 +12°C° 1.5 mm 1 m/S 753 mmHg 95%
01:00 +12°C° 0.4 mm 2 m/S 753 mmHg 96%
02:00 +12°C° 0.4 mm 2 m/S 753 mmHg 96%
03:00 +12°C° 0.4 mm 2 m/S 753 mmHg 97%
04:00 +12°C° 0.7 mm 2 m/S 753 mmHg 97%
05:00 +12°C° 0.7 mm 2 m/S 753 mmHg 97%
06:00 +10°C° 0.7 mm 2 m/S 753 mmHg 97%
07:00 +10°C° 0.7 mm 2 m/S 753 mmHg 96%
08:00 +11°C° 0.7 mm 1 m/S 753 mmHg 94%
09:00 +11°C° 0.7 mm 1 m/S 753 mmHg 93%
10:00 +12°C° 0 mm 1 m/S 753 mmHg 88%
11:00 +14°C° 0 mm 2 m/S 753 mmHg 82%
12:00 +15°C° 0 mm 2 m/S 753 mmHg 77%
13:00 +14°C° 0 mm 3 m/S 753 mmHg 80%
14:00 +14°C° 0 mm 3 m/S 752 mmHg 83%
15:00 +14°C° 0 mm 3 m/S 752 mmHg 86%
16:00 +14°C° 0.1 mm 3 m/S 752 mmHg 89%
17:00 +15°C° 0.1 mm 2 m/S 751 mmHg 92%
18:00 +14°C° 0.1 mm 2 m/S 751 mmHg 95%
19:00 +14°C° 0.1 mm 2 m/S 751 mmHg 95%
20:00 +14°C° 0.1 mm 2 m/S 750 mmHg 95%
21:00 +13°C° 0.1 mm 3 m/S 750 mmHg 95%
22:00 +13°C° 0.1 mm 3 m/S 750 mmHg 96%
23:00 +13°C° 0.1 mm 3 m/S 750 mmHg 96%

13 Mai, Donnerstag

Zeit Temperatur Niederschläge Wind Luftdruck Luftfeuchtigkeit
00:00 +12°C° 0.1 mm 3 m/S 750 mmHg 97%
01:00 +12°C° 0.1 mm 3 m/S 750 mmHg 97%
02:00 +12°C° 0.1 mm 3 m/S 749 mmHg 97%
03:00 +12°C° 0.1 mm 3 m/S 749 mmHg 98%
04:00 +12°C° 0 mm 3 m/S 749 mmHg 98%
05:00 +12°C° 0 mm 3 m/S 749 mmHg 98%
06:00 +12°C° 0 mm 3 m/S 750 mmHg 98%
07:00 +13°C° 0 mm 3 m/S 749 mmHg 92%
08:00 +16°C° 0 mm 3 m/S 749 mmHg 86%
09:00 +17°C° 0 mm 3 m/S 749 mmHg 81%
10:00 +18°C° 0 mm 4 m/S 749 mmHg 74%
11:00 +19°C° 0 mm 4 m/S 749 mmHg 67%
12:00 +20°C° 0 mm 4 m/S 750 mmHg 59%
13:00 +21°C° 0 mm 4 m/S 749 mmHg 58%
14:00 +21°C° 0 mm 4 m/S 749 mmHg 56%
15:00 +22°C° 0 mm 4 m/S 749 mmHg 54%
16:00 +21°C° 0 mm 3 m/S 749 mmHg 59%
17:00 +21°C° 0 mm 3 m/S 749 mmHg 64%
18:00 +21°C° 0 mm 2 m/S 749 mmHg 69%
19:00 +19°C° 0 mm 2 m/S 749 mmHg 75%
20:00 +18°C° 0 mm 3 m/S 749 mmHg 80%
21:00 +16°C° 0 mm 3 m/S 749 mmHg 86%
22:00 +16°C° 0 mm 3 m/S 749 mmHg 88%
23:00 +14°C° 0 mm 3 m/S 749 mmHg 90%
Mehr zeigen

Wir brauchen deine Erlaubnis

Meteoprog und unser Service Anbieter werden persönliche Daten aufbewahren, so wie Cookies, Geräte Bezeichnung oder ähnliche Technologien von deinem Gerät und Prozess, so wie Persönliche Daten Inhalte und Werbungen, genauso wie social Media und den Verkehr zu analysieren.

  • Aufbewahrung und/oder Zugang zu deiner Geräte Informationen.

    Cookies, Geräte Bezeichnung oder andere Informationen, können aufbewahrt oder Zugang zu deinem Gerät erhalten, für den Grund, der oben angegeben wird.

  • Personalisierte Werbung und Inhalte, Messungen, Einblick in das Publikum und Produkt Entwicklung.

    Werbungen und Inhalte können personalisiert werden, basierend auf ein Profil. Mehr Daten können besser personalisierte Werbungen und Inhalte hinzufügen. Werbung und Inhalte können gezeigt und gemessen werden. Einblicke über das Publikum, welche die Werbung gesehen haben und den Inhalt, können abgeleitet werden. So wie Daten können genutzt werden, um es zu verbessern oder die Benutzer Erfahrung zu verbessern das System und die Software.

Wenn du “Ich stimme zu” klickst, erlaubst du uns, die Cookies zu benutzen die Geräte Bezeichnung, den Web oder ähnliche Technologien zu benutzen. Deine Settings, können in deinem Gerät bei deinem Browser geändert werden.

Für den bestimmten Zweck, berechtigten Interessen beruhen darauf, mehr als auf den Inhalt. Du kannst mehr darüber in unseren Privaten und Cookie Politik lesen.